Location: Bonnesvalyn
(49.1218°N, 3.3177°E)
Time: 09:47:15
(UTC+00:00)

Cosmos 2208 Rocket - Pass Details

Date: 09 February 2023
Orbit: 753 x 805 km, 74.0° (Epoch: 23 March)

Event Time Altitude Azimuth Distance (km) Brightness Sun altitude
Rises 18:37:27 0° 337° (NNW) 3,219 7.5 -16.9°
Reaches altitude 10° 18:39:49 10° 340° (NNW) 2,293 6.7 -17.3°
Maximum altitude 18:45:01 74° 65° (ENE) 794 3.9 -18.1°
Enters shadow 18:50:09 10° 151° (SSE) 2,268 6.2 -19.0°
